[[{"header":{"parameterUnit":"m.s-1","parameterCategory":1,"la1":30.2991,"la2":30.254,"lo1":-89.0895,"lo2":-89.0444,"dy":0.0017,"dx":0.0017,"nx":28,"ny":28,"refTime":"2024-03-28T03:00:00:Z","depth":0,"parameterNumber":2,"parameterNumberName":"U-component_of_WINDS"},"data":[0,0,0,0,0,0,0,0,0,0,0,0,0,0,0,0,0,0,0,0,0,0,0,0,0,0,0,0,0,0,0,0,0,0,0,0,0,0,0,0,0,0,0,0,0,0,0,0,0,0,0,0,0,0,0,0,0,0,-0.2465,-0.2465,0,-0.2454,-0.2454,-0.2454,-0.2431,-0.243,-0.243,-0.2429,-0.2418,-0.2418,-0.2418,0,0,0,0,0,0,0,0,0,0,0,0,0,-0.2466,-0.2466,-0.2465,-0.2465,-0.2465,-0.2454,-0.2454,-0.2454,-0.2431,-0.243,-0.2429,-0.2429,-0.2418,-0.2418,-0.2418,0,0,0,0,0,0,0,0,0,0,0,0,0,-0.2461,-0.2466,-0.2465,-0.2452,-0.2451,-0.2454,-0.2454,-0.2454,-0.2431,-0.243,-0.2429,-0.2429,-0.2418,-0.2418,-0.2418,-0.2434,0,0,-0.2419,-0.2419,0,0,0,0,0,0,0,0,-0.2462,-0.2461,-0.2454,-0.2453,-0.2452,-0.2443,-0.245,-0.2447,-0.2431,-0.2438,-0.2429,-0.2428,-0.2427,-0.2426,-0.2426,-0.2434,-0.2433,-0.2419,-0.2419,-0.2419,-0.2419,0,0,0,0,0,0,0,-0.2462,-0.2462,-0.2461,-0.2454,-0.2453,-0.2447,-0.2445,-0.245,-0.2437,-0.2438,-0.2436,-0.2435,-0.2426,-0.2426,-0.2426,-0.2433,-0.2419,-0.2419,-0.242,-0.242,-0.2451,-0.2452,0,0,0,0,0,0,-0.2464,-0.2462,-0.2461,-0.2461,-0.2455,-0.2447,-0.2446,-0.2447,-0.2437,-0.2435,-0.2436,-0.2434,-0.2426,-0.2425,-0.2425,-0.2442,-0.2419,-0.242,-0.242,-0.2451,-0.2452,-0.2452,0,0,0,0,0,0,-0.2464,-0.2464,-0.2462,-0.2461,-0.246,-0.2448,-0.2449,-0.2447,-0.2446,-0.2435,-0.2433,-0.2438,-0.2425,-0.2425,-0.2432,-0.2441,-0.242,-0.242,-0.245,-0.2451,-0.2452,-0.2477,0,0,0,0,0,0,-0.2464,-0.2465,-0.2471,-0.2461,-0.246,-0.2469,-0.245,-0.2447,-0.2447,-0.2444,-0.2436,-0.2434,-0.2425,-0.2431,-0.2432,-0.2441,-0.242,-0.2449,-0.245,-0.2452,-0.2475,-0.2479,-0.2482,0,0,0,0,0,-0.2465,-0.2478,-0.2471,-0.2471,-0.2468,-0.247,-0.2469,-0.2457,-0.2448,-0.2453,-0.2446,-0.2435,-0.244,-0.2432,-0.2433,-0.2442,-0.2448,-0.245,-0.2452,-0.2474,-0.2478,-0.2481,0,0,0,0,0,0,-0.249,-0.2477,-0.2469,-0.248,-0.2476,-0.2466,-0.2473,-0.2462,-0.2461,-0.2459,-0.2445,-0.2443,-0.2452,-0.2448,-0.2439,-0.2456,-0.2442,-0.2444,-0.2459,-0.2463,-0.2466,-0.2467,-0.242,0,0,0,0,0,-0.2497,-0.2499,-0.2488,-0.2499,-0.2497,-0.2485,-0.2486,-0.2477,-0.2472,-0.2471,-0.2464,-0.246,-0.246,-0.2461,-0.2461,-0.2474,-0.2472,-0.2481,-0.2484,-0.2487,-0.2488,-0.2494,-0.2498,-0.2458,-0.2458,-0.2458,0,0,-0.2511,-0.2504,-0.2507,-0.2504,-0.25,-0.2503,-0.2484,-0.2488,-0.249,-0.2471,-0.2478,-0.2472,-0.2467,-0.2476,-0.248,-0.2473,-0.2499,-0.2489,-0.2491,-0.2491,-0.2496,-0.25,-0.2503,-0.2459,-0.2458,-0.2458,0,0,-0.2539,-0.2534,-0.2542,-0.2538,-0.2532,-0.2524,-0.2526,-0.2516,-0.2512,-0.2518,-0.2503,-0.2505,-0.2507,-0.2503,-0.2502,-0.2526,-0.2515,-0.2526,-0.2544,-0.2549,-0.2552,-0.2555,-0.2564,-0.2567,-0.2528,-0.2528,-0.2528,0,-0.2557,-0.2561,-0.2548,-0.2553,-0.2551,-0.2534,-0.2542,-0.2538,-0.2533,-0.2532,-0.2524,-0.2525,-0.252,-0.2528,-0.2534,-0.2533,-0.2534,-0.2528,-0.2553,-0.2556,-0.2558,-0.2566,-0.2569,-0.253,-0.2529,-0.2529,-0.2529,0,-0.2584,-0.2587,-0.2595,-0.2589,-0.2588,-0.2595,-0.2582,-0.2583,-0.2574,-0.2566,-0.2572,-0.2565,-0.2563,-0.2564,-0.2555,-0.257,-0.2566,-0.2556,-0.2541,-0.2563,-0.257,-0.2573,-0.2532,-0.2531,-0.2531,-0.253,0,0,-0.2629,-0.2615,-0.2618,-0.2615,-0.2606,-0.2607,-0.2612,-0.261,-0.2611,-0.2607,-0.2611,-0.2612,-0.2602,-0.26,-0.259,-0.2595,-0.2614,-0.2584,-0.2584,-0.259,-0.263,-0.2638,-0.2642,-0.2607,-0.2607,-0.2608,-0.2631,0,-0.2655,-0.2663,-0.265,-0.2661,-0.2664,-0.2646,-0.265,-0.2645,-0.2637,-0.2638,-0.263,-0.2631,-0.2617,-0.2616,-0.262,-0.2611,-0.2622,-0.2609,-0.261,-0.261,-0.2613,-0.2646,-0.2655,-0.2677,-0.2633,-0.2634,-0.2634,0,-0.2687,-0.2684,-0.2695,-0.2684,-0.2685,-0.2689,-0.2685,-0.2686,-0.2679,-0.2673,-0.267,-0.2658,-0.2662,-0.2648,-0.2652,-0.2644,-0.2643,-0.2639,-0.2639,-0.2639,-0.2624,-0.2647,-0.2683,-0.2687,-0.2638,-0.2638,-0.2638,0,-0.2718,-0.2717,-0.2723,-0.2721,-0.2709,-0.2712,-0.2707,-0.2699,-0.2698,-0.2695,-0.2694,-0.2691,-0.2689,-0.2687,-0.2674,-0.2665,-0.268,-0.2665,-0.2675,-0.2676,-0.268,-0.268,-0.2717,-0.2679,-0.2679,-0.2679,-0.2679,0,-0.2749,-0.2756,-0.2737,-0.2741,-0.2748,-0.2733,-0.2741,-0.2734,-0.2727,-0.2729,-0.2713,-0.2715,-0.2699,-0.2699,-0.2689,-0.2694,-0.2693,-0.2689,-0.2686,-0.269,-0.2691,-0.269,-0.2688,-0.268,-0.268,-0.268,-0.2679,0,-0.2786,-0.2773,-0.2779,-0.2766,-0.2763,-0.2769,-0.2758,-0.2761,-0.2752,-0.2754,-0.2754,-0.274,-0.2739,-0.2726,-0.2723,-0.2716,-0.2725,-0.2719,-0.2727,-0.2725,-0.2736,-0.2736,-0.2775,-0.2779,-0.2738,-0.2738,-0.2739,0,-0.2806,-0.2811,-0.2799,-0.2799,-0.2795,-0.2795,-0.2793,-0.2778,-0.2777,-0.2769,-0.2773,-0.277,-0.2768,-0.2767,-0.2756,-0.2753,-0.2747,-0.2761,-0.2747,-0.2751,-0.2748,-0.2748,-0.2748,-0.2765,-0.2765,-0.2766,-0.2766,0,-0.2844,-0.2837,-0.2836,-0.2832,-0.283,-0.2827,-0.2822,-0.2823,-0.2806,-0.2805,-0.2804,-0.2802,-0.2798,-0.2795,-0.279,-0.2784,-0.2772,-0.277,-0.2772,-0.2777,-0.2781,-0.2779,-0.2736,-0.277,-0.2769,-0.2769,-0.2769,-0.2769,-0.2873,-0.2877,-0.2868,-0.2867,-0.2861,-0.2857,-0.2859,-0.2849,-0.2848,-0.2843,-0.2834,-0.2834,-0.2826,-0.2817,-0.2812,-0.2812,-0.2805,-0.2808,-0.2809,-0.281,-0.2812,-0.2781,-0.2811,-0.281,-0.281,-0.281,-0.281,0,-0.291,-0.2904,-0.2902,-0.2896,-0.2894,-0.2882,-0.2876,-0.2876,-0.2876,-0.2869,-0.2866,-0.2864,-0.2861,-0.285,-0.2846,-0.2847,-0.2842,-0.2847,-0.2847,-0.2846,-0.2819,-0.2817,-0.2852,-0.2852,-0.2852,-0.2852,-0.2852,-0.2852,-0.2929,-0.2934,-0.2926,-0.2928,-0.2921,-0.2921,-0.2918,-0.2913,-0.2908,-0.2906,-0.2904,-0.2896,-0.2887,-0.2882,-0.2879,-0.2875,-0.2874,-0.2881,-0.2876,-0.2852,-0.2848,-0.2844,-0.2842,-0.2881,-0.2881,-0.2903,-0.2903,-0.2903]},{"header":{"parameterUnit":"m.s-1","parameterCategory":1,"la1":30.2991,"la2":30.254,"lo1":-89.0895,"lo2":-89.0444,"dy":0.0017,"dx":0.0017,"nx":28,"ny":28,"refTime":"2024-03-28T03:00:00:Z","depth":0,"parameterNumber":3,"parameterNumberName":"V-component_of_WINDS"},"data":[0,0,0,0,0,0,0,0,0,0,0,0,0,0,0,0,0,0,0,0,0,0,0,0,0,0,0,0,0,0,0,0,0,0,0,0,0,0,0,0,0,0,0,0,0,0,0,0,0,0,0,0,0,0,0,0,0,0,-3.805,-3.8051,0,-3.8165,-3.8166,-3.8168,-3.8168,-3.8167,-3.8165,-3.8164,-3.8279,-3.8284,-3.8288,0,0,0,0,0,0,0,0,0,0,0,0,0,-3.7828,-3.7832,-3.805,-3.8051,-3.8053,-3.8165,-3.8166,-3.8168,-3.8169,-3.8167,-3.8165,-3.8163,-3.8278,-3.8283,-3.8288,0,0,0,0,0,0,0,0,0,0,0,0,0,-3.7932,-3.7833,-3.8049,-3.8066,-3.8069,-3.8164,-3.8166,-3.8168,-3.8169,-3.8167,-3.8165,-3.8163,-3.8276,-3.8283,-3.8289,-3.8374,0,0,-3.8309,-3.8312,0,0,0,0,0,0,0,0,-3.7926,-3.794,-3.8063,-3.8065,-3.8069,-3.815,-3.813,-3.8237,-3.817,-3.8131,-3.8164,-3.8161,-3.8238,-3.8248,-3.8274,-3.838,-3.8385,-3.831,-3.8314,-3.8317,-3.8319,0,0,0,0,0,0,0,-3.7919,-3.7935,-3.8095,-3.8064,-3.8068,-3.8068,-3.808,-3.8151,-3.8195,-3.8134,-3.8135,-3.8148,-3.8239,-3.8268,-3.8277,-3.8386,-3.831,-3.8316,-3.832,-3.8322,-3.8568,-3.857,0,0,0,0,0,0,-3.7908,-3.7929,-3.8091,-3.8099,-3.799,-3.8073,-3.8087,-3.8126,-3.8195,-3.8203,-3.815,-3.8148,-3.8257,-3.8269,-3.8281,-3.8385,-3.8317,-3.8323,-3.8327,-3.8565,-3.8569,-3.8571,0,0,0,0,0,0,-3.7903,-3.7923,-3.8087,-3.8014,-3.8035,-3.808,-3.8123,-3.813,-3.8158,-3.8207,-3.8214,-3.8171,-3.8256,-3.8271,-3.8351,-3.8389,-3.8326,-3.8332,-3.8562,-3.8566,-3.857,-3.8594,0,0,0,0,0,0,-3.7897,-3.7921,-3.7954,-3.8015,-3.8039,-3.8156,-3.8126,-3.8133,-3.817,-3.8168,-3.8228,-3.8236,-3.8255,-3.8341,-3.8358,-3.8397,-3.8337,-3.8559,-3.8564,-3.8569,-3.859,-3.8599,-3.8606,0,0,0,0,0,-3.7889,-3.7956,-3.7956,-3.7976,-3.8081,-3.8158,-3.8172,-3.8194,-3.8173,-3.8206,-3.8238,-3.8234,-3.8382,-3.835,-3.8368,-3.841,-3.8557,-3.8563,-3.8568,-3.8587,-3.8597,-3.8605,0,0,0,0,0,0,-3.7897,-3.7964,-3.7965,-3.8053,-3.81,-3.8158,-3.8201,-3.8203,-3.8257,-3.8253,-3.8276,-3.829,-3.837,-3.8398,-3.836,-3.8496,-3.8467,-3.8477,-3.8475,-3.8485,-3.8492,-3.8484,-3.8343,0,0,0,0,0,-3.791,-3.7968,-3.8022,-3.8095,-3.8119,-3.8156,-3.819,-3.8203,-3.8252,-3.8272,-3.8309,-3.8356,-3.8414,-3.8451,-3.8506,-3.8595,-3.8608,-3.8633,-3.864,-3.8646,-3.8654,-3.8703,-3.8715,-3.859,-3.859,-3.859,0,0,-3.7935,-3.7979,-3.8014,-3.8098,-3.8136,-3.8195,-3.8173,-3.8236,-3.8279,-3.8281,-3.8359,-3.8388,-3.8443,-3.8527,-3.8566,-3.8553,-3.8692,-3.8653,-3.8658,-3.8663,-3.871,-3.8722,-3.8733,-3.8594,-3.8593,-3.8592,0,0,-3.8012,-3.8051,-3.8116,-3.8155,-3.8213,-3.8238,-3.8253,-3.8312,-3.8331,-3.841,-3.8413,-3.8465,-3.8563,-3.8602,-3.8634,-3.8727,-3.8726,-3.8744,-3.8784,-3.8831,-3.8841,-3.885,-3.8883,-3.8895,-3.8752,-3.8752,-3.8752,0,-3.8036,-3.8126,-3.8149,-3.8213,-3.8249,-3.8255,-3.8321,-3.8357,-3.843,-3.8455,-3.844,-3.8563,-3.86,-3.8694,-3.8717,-3.8743,-3.8761,-3.8737,-3.8838,-3.8847,-3.8856,-3.8888,-3.89,-3.8754,-3.8754,-3.8754,-3.8753,0,-3.8153,-3.8215,-3.826,-3.8332,-3.8374,-3.8438,-3.847,-3.851,-3.8519,-3.8545,-3.8626,-3.8671,-3.8735,-3.8759,-3.8768,-3.8854,-3.8844,-3.8833,-3.8804,-3.8869,-3.8899,-3.8912,-3.8757,-3.8756,-3.8755,-3.8755,0,0,-3.8237,-3.8322,-3.8338,-3.8371,-3.8436,-3.8484,-3.8549,-3.8613,-3.8647,-3.8697,-3.8751,-3.8835,-3.8825,-3.8862,-3.8876,-3.8918,-3.8988,-3.8901,-3.8903,-3.8916,-3.9086,-3.9094,-3.9108,-3.8988,-3.899,-3.8992,-3.9082,0,-3.832,-3.8437,-3.846,-3.856,-3.8618,-3.8624,-3.8681,-3.8726,-3.8753,-3.8805,-3.8833,-3.8892,-3.8875,-3.8897,-3.8939,-3.8971,-3.9023,-3.8965,-3.9038,-3.9041,-3.9024,-3.9124,-3.9132,-3.9214,-3.9094,-3.9096,-3.9097,0,-3.8433,-3.8488,-3.8594,-3.8653,-3.8678,-3.8728,-3.8789,-3.8839,-3.8891,-3.8907,-3.8949,-3.8959,-3.9025,-3.8994,-3.9086,-3.9046,-3.9078,-3.9098,-3.9101,-3.9109,-3.9073,-3.9134,-3.9241,-3.9253,-3.9116,-3.9115,-3.9113,0,-3.8484,-3.8584,-3.8661,-3.8689,-3.8759,-3.8794,-3.8824,-3.8874,-3.8912,-3.8965,-3.899,-3.905,-3.9082,-3.9128,-3.9153,-3.9128,-3.9244,-3.9214,-3.9259,-3.9258,-3.9282,-3.928,-3.9396,-3.9303,-3.9303,-3.9303,-3.9302,0,-3.8575,-3.864,-3.8685,-3.8732,-3.8805,-3.8831,-3.8902,-3.8932,-3.8976,-3.9029,-3.9038,-3.9087,-3.9118,-3.9171,-3.9191,-3.9264,-3.9279,-3.9293,-3.9298,-3.9292,-3.9291,-3.9313,-3.9308,-3.9306,-3.9305,-3.9305,-3.9304,0,-3.8644,-3.8676,-3.8761,-3.8821,-3.8837,-3.8888,-3.8939,-3.8985,-3.9012,-3.9078,-3.9095,-3.9137,-3.92,-3.923,-3.9308,-3.9321,-3.9405,-3.9405,-3.9387,-3.9389,-3.9432,-3.9427,-3.9566,-3.9585,-3.9479,-3.948,-3.9481,0,-3.8699,-3.8749,-3.8815,-3.8852,-3.8884,-3.8942,-3.8981,-3.9009,-3.9048,-3.9112,-3.915,-3.9214,-3.9267,-3.9367,-3.9404,-3.9464,-3.9466,-3.951,-3.9475,-3.9468,-3.9467,-3.9463,-3.9468,-3.9516,-3.9518,-3.9518,-3.9519,0,-3.8794,-3.8809,-3.8865,-3.8927,-3.8973,-3.9023,-3.9072,-3.9101,-3.9137,-3.9181,-3.9247,-3.9287,-3.9368,-3.9431,-3.9494,-3.9524,-3.9528,-3.953,-3.9544,-3.9538,-3.9526,-3.9533,-3.9405,-3.9527,-3.9526,-3.9525,-3.9525,-3.9525,-3.8858,-3.8903,-3.8957,-3.902,-3.906,-3.9106,-3.9152,-3.9185,-3.9241,-3.9309,-3.9322,-3.9391,-3.9442,-3.9527,-3.956,-3.9614,-3.9604,-3.9623,-3.9628,-3.9633,-3.9635,-3.9518,-3.9626,-3.9626,-3.9625,-3.9625,-3.9625,0,-3.8954,-3.8989,-3.9046,-3.9115,-3.9165,-3.9165,-3.9219,-3.926,-3.9322,-3.937,-3.9422,-3.9497,-3.9559,-3.9601,-3.9664,-3.9699,-3.9702,-3.9714,-3.9712,-3.9719,-3.9641,-3.9623,-3.9711,-3.9711,-3.9711,-3.9711,-3.9711,-3.9711,-3.9009,-3.9086,-3.9107,-3.9203,-3.9238,-3.9307,-3.9338,-3.9381,-3.9419,-3.9504,-3.9555,-3.9583,-3.9629,-3.9695,-3.9751,-3.9762,-3.9784,-3.9797,-3.9807,-3.9733,-3.9724,-3.9716,-3.9699,-3.9802,-3.9802,-3.9881,-3.9882,-3.9882]}]]